RH
31 26 20 18 18 18 19 20 20 20 19 19 18 17 13 8 5 4 3 3 4 9 22 38 70 90 93 92 88 88 94 99 100 93 95 94 98 87 83 96 100 76 93
36 34 31 25 22 21 22 22 22 21 21 19 18 16 15 12 7 4 4 4 4 4 3 3 4 4 10 29 28 20 30 54 72 99 100 97 86 87 90 82 90 97 97
43 42 38 34 30 28 27 26 25 25 24 22 20 17 14 10 7 6 5 6 6 6 5 5 4 4 4 4 4 4 4 4 4 4 6 10 20 26 53 69 69 58 42
42 44 44 39 36 34 34 32 31 30 28 26 22 17 11 8 8 9 10 10 10 11 11 11 9 8 7 7 6 6 5 5 5 4 4 4 4 3 3 5 12 19 11
41 42 47 38 39 39 36 34 34 34 32 30 21 13 9 11 16 18 21 24 26 28 29 28 23 15 12 12 10 9 10 10 10 11 10 8 7 6 5 5 4 4 4
38 43 46 39 40 40 40 41 42 40 37 27 14 9 19 36 42 42 36 30 26 24 22 21 23 24 22 17 13 12 10 10 9 9 8 8 8 7 7 7 7 6 6
42 48 43 43 46 45 45 48 48 46 36 15 9 29 45 43 32 31 32 32 33 34 32 31 30 28 27 26 22 18 17 16 15 13 11 11 10 10 9 8 7 6 6
46 45 44 48 48 52 52 53 49 44 22 9 33 46 41 34 27 34 31 28 29 20 13 12 12 14 16 18 18 18 20 26 29 29 28 24 20 15 12 10 9 8 7
37 43 51 51 53 58 60 55 52 34 10 38 47 41 32 25 25 26 25 25 15 11 12 14 17 21 25 28 29 32 34 37 39 36 33 29 24 19 14 14 13 12 12
45 55 57 56 62 62 58 57 48 13 36 45 38 33 30 28 24 26 23 11 11 12 14 21 25 28 31 33 33 34 38 46 45 42 41 38 32 24 16 13 11 11 10
60 62 60 66 69 68 60 54 19 31 42 38 34 32 28 25 28 17 11 12 12 11 20 26 30 34 41 46 48 47 46 38 26 16 14 14 15 16 16 16 15 15 14
50 55 65 74 74 72 62 47 23 41 39 37 35 28 26 29 19 12 12 13 12 17 24 28 39 46 50 54 52 36 19 16 16 16 16 18 20 22 23 24 24 25 24
52 58 68 74 76 74 70 27 38 40 40 39 36 29 26 24 15 13 14 13 14 24 26 37 46 52 55 43 24 17 18 19 21 22 24 24 27 28 32 35 35 36 36
60 66 73 75 79 76 75 25 42 41 41 40 36 29 25 22 14 14 15 12 20 28 33 45 58 58 49 25 20 21 21 20 20 20 19 20 22 27 30 34 32 32 31
65 69 79 80 89 86 64 28 43 42 42 42 39 35 29 20 15 15 15 12 22 27 31 51 60 53 30 24 26 28 29 28 27 25 25 25 24 26 29 34 35 36 34
68 73 82 87 89 88 45 30 45 44 44 43 43 43 28 18 15 15 14 13 28 32 41 59 59 48 32 22 24 28 31 31 32 32 31 31 31 31 30 31 34 35 35
78 85 90 94 94 94 31 35 56 47 45 44 47 49 26 17 16 16 13 16 33 37 59 65 60 56 55 64 63 44 31 33 33 34 34 36 37 37 37 38 38 36 36
85 88 90 94 96 73 20 41 66 49 46 46 49 51 23 17 17 16 13 25 40 54 64 64 66 66 68 74 78 78 76 59 44 40 39 40 42 43 41 42 44 44 45
93 96 97 94 95 38 15 49 68 54 53 47 59 47 19 17 17 15 14 36 45 66 69 70 70 70 76 80 81 78 77 81 80 68 50 42 45 46 46 50 48 46 44
96 96 96 94 93 68 41 68 67 55 58 57 72 40 17 16 18 14 24 42 58 73 73 72 71 75 81 80 73 73 72 78 81 82 81 70 56 51 51 52 53 50 50
95 95 91 78 94 92 58 61 61 63 64 66 80 36 18 16 16 14 38 47 68 75 74 72 75 79 83 74 70 67 64 67 84 91 94 89 91 80 62 54 50 46 41
81 90 85 79 73 93 67 55 60 72 73 78 86 39 18 17 15 16 41 50 74 76 74 74 75 80 79 76 76 72 77 86 95 96 95 96 97 98 93 67 50 50 63
63 70 85 96 95 92 91 76 73 91 78 91 91 45 19 18 15 18 43 56 79 80 78 79 77 82 83 88 91 90 94 96 97 97 96 97 98 98 96 94 77 93 96
97 100 99 96 96 66 82 92 83 91 90 94 92 51 20 18 15 23 46 62 82 82 80 83 80 85 90 91 93 96 97 96 94 95 96 97 99 99 98 94 97 97 96
95 98 98 93 95 95 95 96 96 91 89 94 92 51 21 18 15 30 47 62 82 82 83 87 86 90 93 94 96 98 98 98 96 96 96 96 98 98 98 98 98 96 96
95 96 96 98 98 96 96 95 96 91 94 94 90 50 21 18 15 33 49 64 83 85 84 87 87 90 92 96 99 100 97 98 97 96 96 97 97 98 98 96 96 94 98
Wind_Speed
21 20 20 20 20 19 19 20 21 22 22 23 23 24 24 23 22 21 20 18 17 18 19 20 19 22 24 26 26 28 28 30 30 30 30 31 35 39 41 41 40 43 47
23 22 22 22 21 21 21 21 22 23 24 24 24 23 24 24 23 22 21 19 19 19 19 20 21 23 24 25 26 27 30 31 32 33 32 34 36 39 40 39 40 41 43
23 23 24 23 23 23 23 23 23 23 24 25 25 24 22 22 22 21 22 22 21 20 21 21 21 22 22 23 24 27 29 31 33 34 33 36 37 37 36 38 40 41 42
25 25 25 25 24 25 25 25 24 24 24 24 25 24 24 23 21 22 22 22 22 24 24 22 21 23 24 24 25 27 28 29 31 33 33 34 35 37 38 39 40 42 41
27 26 26 25 25 25 25 25 25 26 25 24 23 23 23 22 22 22 22 22 22 23 24 26 28 27 25 26 28 28 28 28 30 32 34 34 34 35 36 37 37 38 37
28 26 27 25 25 25 25 25 25 26 25 25 24 22 21 22 24 26 26 25 24 24 25 26 27 28 30 31 29 29 30 31 31 32 33 34 34 34 35 36 36 37 35
27 26 26 26 27 26 25 25 25 24 24 25 23 23 24 26 26 26 26 27 27 27 26 26 27 29 29 30 31 31 31 31 31 33 34 33 35 35 36 35 36 37 37
28 26 25 28 28 26 26 25 24 24 24 23 22 24 27 28 27 28 28 28 29 28 28 28 28 27 27 27 28 28 29 29 30 32 34 33 35 35 36 37 35 37 36
27 27 28 30 27 25 25 24 24 24 24 23 26 27 27 28 28 29 30 30 30 29 29 28 27 25 26 27 27 28 29 30 33 35 36 37 36 36 38 40 39 40 39
27 29 32 30 27 25 24 24 24 23 23 26 28 28 28 28 29 29 30 30 29 29 28 25 24 25 25 28 31 33 33 33 34 35 36 37 38 37 38 41 43 42 43
30 33 32 28 26 25 24 24 22 22 25 27 28 28 28 28 29 29 29 30 30 28 23 22 24 26 28 31 33 34 35 36 36 35 34 32 31 32 33 36 38 39 41
30 30 28 27 26 24 24 23 21 23 26 27 28 28 28 29 30 29 30 30 30 25 22 24 25 29 31 32 33 33 34 33 32 31 30 29 30 29 30 32 33 36 38
28 27 26 26 25 24 24 23 22 23 25 28 28 28 29 30 30 30 29 30 26 24 24 26 29 31 31 31 33 33 33 33 31 30 29 28 29 30 30 30 32 35 37
27 26 26 26 25 25 25 23 23 24 25 28 29 29 29 29 30 30 29 29 25 24 26 28 30 30 29 30 28 29 31 31 30 29 28 28 27 27 27 29 31 32 34
26 26 25 26 24 25 25 24 23 25 26 28 30 29 28 28 29 29 29 26 24 24 27 29 29 28 29 28 28 28 28 28 29 29 30 29 29 29 28 28 30 30 31
25 25 25 25 25 24 26 25 24 26 27 28 30 29 28 29 29 28 29 26 24 25 28 30 28 27 28 28 28 28 27 28 29 29 29 30 30 29 28 27 28 28 27
23 24 25 24 25 24 26 24 26 27 27 29 31 30 29 28 29 28 29 24 23 26 28 28 26 26 26 27 28 28 27 27 28 28 29 29 30 28 27 26 26 26 26
23 25 25 25 25 21 25 23 29 28 27 29 33 32 29 28 28 28 27 22 22 26 28 27 25 25 27 28 28 28 27 27 28 28 28 29 30 31 28 26 25 25 26
23 24 24 28 22 21 24 24 29 27 27 28 32 32 30 29 27 28 24 22 22 24 25 25 25 26 26 27 28 28 29 29 30 29 27 27 26 28 26 26 25 25 26
23 27 28 32 29 23 25 27 29 26 27 27 31 31 28 28 27 27 23 23 24 23 24 24 23 24 25 26 27 27 28 28 28 28 28 28 27 27 27 26 24 23 22
22 26 29 31 37 31 24 27 27 26 27 27 30 30 27 26 25 23 21 22 23 22 23 22 22 23 24 24 25 26 27 26 26 27 27 26 27 27 26 26 25 24 24
26 28 31 34 35 33 26 26 26 26 25 27 28 28 27 25 24 22 20 20 21 21 22 21 21 23 23 24 25 27 27 27 28 28 27 26 25 24 25 26 24 23 21
27 31 34 36 38 32 29 25 28 26 24 26 25 26 26 24 23 20 19 19 19 20 22 22 22 22 23 24 25 28 30 30 29 29 29 27 26 24 24 24 22 21 21
27 31 35 34 30 31 32 29 30 25 24 25 24 25 25 24 22 20 18 19 18 19 21 21 22 23 22 23 25 27 28 29 29 28 27 25 25 23 24 24 23 23 25
32 29 27 29 31 32 33 31 30 25 22 23 22 24 24 23 21 19 18 18 16 16 19 20 21 23 23 23 24 26 26 26 26 27 27 25 24 23 22 23 24 25 25
40 34 28 27 28 31 32 29 29 23 22 21 21 23 23 22 20 18 17 17 15 15 17 19 20 21 21 22 24 25 24 25 25 25 25 24 23 22 21 21 21 21 21
Wind_Direction
303 300 298 298 300 305 310 313 315 318 320 323 325 326 327 327 325 323 321 316 308 304 301 296 290 283 279 280 279 275 271 273 277 275 270 265 264 266 267 264 264 263 250
300 300 299 299 300 302 304 307 310 313 315 318 321 323 324 326 326 326 324 320 316 311 304 299 293 288 285 280 277 276 275 273 273 272 268 269 269 267 266 267 266 264 263
294 296 297 299 301 302 303 305 309 313 316 317 318 319 320 320 320 320 321 323 323 319 314 310 305 299 294 290 285 282 280 279 279 277 274 271 270 270 271 268 265 263 265
291 293 296 298 298 299 302 305 309 313 314 315 316 319 321 322 322 322 323 322 321 322 321 318 312 307 304 298 293 291 290 288 286 285 284 281 278 275 272 267 266 267 266
287 288 291 294 295 298 301 304 309 311 312 314 315 317 319 322 324 324 322 320 317 315 313 312 313 312 307 300 297 293 288 285 286 286 286 285 282 280 278 274 271 269 267
282 284 285 289 292 296 299 303 307 309 311 312 314 315 318 317 317 316 316 315 315 314 312 309 304 302 303 303 301 297 295 294 293 290 290 290 290 288 285 283 280 275 271
281 281 283 288 294 295 296 300 304 306 308 311 314 316 316 316 314 314 314 312 312 312 311 308 305 303 300 300 301 302 300 299 299 296 294 293 292 291 288 285 283 282 279
280 278 279 288 292 292 294 298 301 304 307 309 310 311 312 312 310 313 313 312 312 311 311 310 308 306 304 302 301 302 303 304 302 298 298 299 298 296 294 292 288 285 283
278 274 279 286 290 288 291 295 299 302 306 307 309 310 310 309 309 313 313 312 311 310 310 308 307 306 307 306 304 302 301 300 297 296 296 297 296 295 293 290 289 287 285
273 273 276 286 284 285 289 294 297 301 304 308 310 310 309 309 311 312 313 311 311 309 310 309 307 308 308 304 302 300 299 296 293 292 293 294 295 293 291 289 289 290 289
266 268 276 279 280 282 285 291 295 300 306 309 310 310 310 311 311 312 313 313 312 310 307 305 306 308 306 304 303 302 300 298 296 296 294 293 292 292 292 291 292 291 290
270 272 272 273 277 281 286 290 294 301 306 309 310 310 311 312 313 314 314 314 314 310 307 307 309 310 309 308 306 305 305 303 302 299 299 300 298 296 294 292 290 288 288
273 270 270 274 278 281 287 288 292 300 306 309 311 310 311 312 313 315 314 315 311 307 307 309 311 312 311 309 307 306 306 305 305 305 304 303 299 298 296 293 290 288 286
270 269 269 273 276 280 284 284 290 297 304 308 311 311 311 311 312 314 313 313 307 306 308 312 312 312 311 308 305 304 305 306 307 308 308 308 304 300 297 294 291 287 286
264 265 267 272 273 280 282 283 289 298 304 308 310 311 309 309 311 311 314 311 304 307 312 315 315 314 316 312 307 307 306 305 305 305 307 308 308 307 306 301 297 293 291
264 265 268 273 276 281 282 282 291 296 302 306 309 310 307 309 313 313 315 310 307 310 315 316 317 320 321 318 313 310 309 307 305 304 304 305 305 305 304 302 299 297 295
265 266 271 273 275 280 283 284 293 295 301 307 309 310 308 310 314 314 314 308 307 311 315 317 317 320 323 324 321 317 312 309 307 305 304 303 301 301 301 301 299 297 295
267 272 275 274 274 282 283 286 289 293 302 306 309 309 308 310 312 313 310 305 308 314 318 319 315 317 318 320 320 318 315 310 305 305 305 304 304 303 302 299 295 293 293
273 272 269 277 274 282 280 285 287 290 297 303 307 306 307 310 312 313 309 307 309 315 318 316 313 313 316 319 318 317 315 313 310 308 306 307 308 307 307 303 297 294 293
276 278 271 277 281 274 282 283 284 289 294 299 303 303 305 309 311 310 306 307 309 315 315 316 312 313 318 321 319 318 317 315 314 313 311 309 309 308 309 308 307 303 297
285 278 277 277 291 283 276 278 281 286 290 295 299 302 303 306 308 304 299 301 307 313 317 317 313 314 319 321 320 321 322 323 322 320 319 312 306 305 304 304 304 302 300
280 276 278 281 280 287 274 272 277 279 285 289 296 301 301 304 306 300 297 301 307 314 317 318 317 316 321 323 326 324 323 323 321 320 320 320 316 311 301 302 304 303 303
278 279 280 281 281 286 286 269 273 273 281 284 295 300 300 303 304 297 296 299 305 312 318 320 319 320 324 326 327 325 325 325 324 324 322 315 309 311 311 301 298 296 296
303 294 291 281 283 282 287 272 272 268 275 282 293 297 299 301 300 293 293 296 303 311 318 322 319 322 325 327 327 324 325 327 328 327 327 326 320 310 303 304 301 297 298
298 305 301 294 285 285 286 281 274 262 271 278 288 294 297 298 296 289 289 292 301 307 315 320 320 322 329 332 332 329 325 323 327 325 325 327 325 320 314 308 304 302 301
290 296 306 299 295 292 287 282 272 258 267 274 285 291 294 295 291 285 285 289 298 306 315 321 321 325 333 338 339 335 331 324 323 322 323 325 327 325 322 321 316 310 304